Location: Newark
(41.0400°S, 62.7845°W)
Time: 05:22:35
(UTC+00:00)

N. Korean satellite - Visible Passes

Search period start: 23 October 2021 00:00
Search period end: 02 November 2021 00:00
Orbit: 450 x 495 km, 97.3° (Epoch: 22 October)

Date Brightness Start Highest point End Pass type
(mag) Time Alt. Az. Time Alt. Az. Time Alt. Az.
23 Oct 9.0 08:01:04 10° NE 08:04:04 27° ESE 08:07:05 10° SSE visible
24 Oct 10.0 07:34:34 10° E 07:36:11 13° ESE 07:37:49 10° SE visible
26 Oct 8.5 08:09:41 10° NE 08:12:53 34° ESE 08:16:06 10° S visible
27 Oct 9.8 07:42:45 10° ENE 07:44:57 16° ESE 07:47:10 10° SSE visible
29 Oct 7.8 08:18:19 10° NNE 08:21:39 45° ESE 08:25:00 10° S visible
30 Oct 9.5 07:51:04 10° ENE 07:53:40 20° ESE 07:56:17 10° SSE visible
01 Nov 7.2 08:26:57 10° NNE 08:30:22 60° ESE 08:33:48 10° S visible
